Погода в Каменке

Россия / Архангельская область     65°53′14″N   44°07′02″E
темп.,
°C
ветер,
м/с
пор.,
м/с
влажн.,
%
обл.,
%
осадки,
мм/ч
давл.,
гПа
погр.,
м
5 августа, чт
чт500:00+10юз71274100 0.0 1006990
03:00+10юз71179100 0.0 1007864
06:00+10юз61081100 0.0 1008830
09:00+11юз5780100 0.1 1010868
12:00+11з5782100 0.1 1012704
15:00+10зсз4684100 0.3 1015662
18:00+9зсз3692100 0.4 1017386
21:00+9з3591100 0.5 1018181
6 августа, пт
пт600:00+9зюз359399 0.1 1019132
03:00+8з3392100 0.1 102055
06:00+10з2385100 0.0 1020110
09:00+12зюз3477100 0.0 1021261
12:00+15зсз346198 0.0 1022806
15:00+16с455675 0.1 1022999
18:00+14с34645 0.0 1022309
21:00+10ссв33835 0.0 102325
7 августа, сб
сб700:00+8вюв22895 0.0 102420
03:00+7вюв33853 0.0 102527
06:00+10юв22702 0.0 1026130
09:00+15вюв22522 0.0 1025578
12:00+18св22415 0.0 10251278
15:00+19ссв44419 0.0 10251570
18:00+18всв44475 0.0 10251344
21:00+12в46725 0.0 102686
8 августа, вс
вс800:00+9в34825 0.0 102648
03:00+8вюв34870 0.0 102756
06:00+11вюв34740 0.0 1027160
09:00+16в45510 0.0 1026735
12:00+19в45410 0.0 10261579
15:00+21в4539100 0.0 10251742
18:00+19в464851 0.0 1025831
21:00+13всв597030 0.0 1025140
9 августа, пн
пн900:00+11в498125 0.0 1026137
03:00+9в47877 0.0 1026105
06:00+12вюв497422 0.0 1025232
09:00+17вюв57486 0.0 1025743
12:00+20в563810 0.0 10241294
15:00+21в66325 0.0 10231412
18:00+19в5743100 0.0 1023903
21:00+12всв477498 0.0 1023102